| time (UTC) | temp F | wind direction | speed MPH | gust MPH | rain 1hr in | rain 24hr in | rain mn in | humidity % | barometer mb |
| 20260509072624 | 55 | 215 | 0.0 | 0.0 | 0.00 | 0.00 | 0.00 | 98 | 969.3 |
| 20260509071628 | 55 | 215 | 0.0 | 0.0 | 0.00 | 0.00 | 0.00 | 98 | 969.3 |
| 20260509070624 | 55 | 215 | 0.0 | 0.0 | 0.00 | 0.00 | 0.00 | 98 | 969.4 |
| 20260509065631 | 55 | 215 | 0.0 | 0.0 | 0.00 | 0.00 | 0.00 | 97 | 969.6 |
| 20260509064620 | 55 | 215 | 0.0 | 0.0 | 0.00 | 0.00 | 0.00 | 97 | 969.5 |
| 20260509062417 | 55 | 215 | 0.0 | 0.0 | 0.00 | 0.00 | 0.00 | 97 | 969.5 |
| 20260509060249 | 55 | 215 | 0.0 | 0.0 | 0.00 | 0.00 | 0.00 | 97 | 969.6 |
| 20260509054156 | 54 | 215 | 0.0 | 0.0 | 0.00 | 0.00 | 0.00 | 96 | 969.6 |
| 20260509053218 | 55 | 215 | 0.0 | 0.0 | 0.00 | 0.00 | 0.00 | 96 | 969.7 |
| 20260509051119 | 55 | 215 | 0.0 | 0.0 | 0.00 | 0.00 | 0.00 | 96 | 969.7 |
| 20260509043755 | 56 | 215 | 0.0 | 0.0 | 0.00 | 0.00 | 0.00 | 96 | 969.4 |
| 20260509042816 | 56 | 215 | 0.0 | 0.0 | 0.00 | 0.00 | 0.00 | 95 | 969.4 |
| 20260509041839 | 56 | 215 | 0.0 | 0.0 | 0.00 | 0.00 | 0.00 | 95 | 969.3 |
| 20260509040804 | 56 | 215 | 0.0 | 0.0 | 0.00 | 0.00 | 0.00 | 95 | 969.2 |
| 20260509034711 | 56 | 215 | 0.0 | 0.0 | 0.00 | 0.00 | 0.00 | 93 | 969.1 |
| 20260509032603 | 56 | 215 | 0.0 | 0.0 | 0.00 | 0.00 | 0.00 | 92 | 968.9 |
| 20260509031544 | 57 | 215 | 0.0 | 1.0 | 0.00 | 0.00 | 0.00 | 91 | 968.8 |
| 20260509030510 | 57 | 215 | 0.0 | 0.0 | 0.00 | 0.00 | 0.00 | 90 | 968.7 |
| 20260509025535 | 57 | 215 | 0.0 | 0.0 | 0.00 | 0.00 | 0.00 | 90 | 968.6 |
| 20260509024525 | 57 | 215 | 0.0 | 0.0 | 0.00 | 0.00 | 0.00 | 89 | 968.6 |
| 20260509022432 | 58 | 227 | 0.0 | 4.0 | 0.00 | 0.00 | 0.00 | 87 | 968.3 |
| 20260509021423 | 59 | 209 | 0.0 | 4.0 | 0.00 | 0.00 | 0.00 | 85 | 968.4 |
| 20260509020437 | 60 | 205 | 1.0 | 3.0 | 0.00 | 0.00 | 0.00 | 84 | 968.4 |
| 20260509015407 | 61 | 183 | 0.0 | 6.0 | 0.00 | 0.00 | 0.00 | 82 | 968.2 |
| 20260509014338 | 61 | 190 | 2.0 | 6.0 | 0.00 | 0.00 | 0.00 | 81 | 968.1 |
| 20260509013343 | 62 | 207 | 1.0 | 5.0 | 0.00 | 0.00 | 0.00 | 79 | 968.3 |
| 20260509012335 | 63 | 192 | 1.0 | 5.0 | 0.00 | 0.00 | 0.00 | 77 | 968.2 |
| 20260509011330 | 64 | 188 | 0.0 | 5.0 | 0.00 | 0.00 | 0.00 | 76 | 968.3 |
| 20260509010312 | 65 | 219 | 1.0 | 6.0 | 0.00 | 0.00 | 0.00 | 75 | 968.1 |
| 20260509005250 | 65 | 226 | 1.0 | 6.0 | 0.00 | 0.00 | 0.00 | 75 | 968.3 |
| 20260509004257 | 66 | 213 | 1.0 | 5.0 | 0.00 | 0.00 | 0.00 | 73 | 968.3 |
| 20260509003225 | 67 | 245 | 0.0 | 5.0 | 0.00 | 0.00 | 0.00 | 71 | 968.3 |
| 20260509002207 | 67 | 174 | 1.0 | 4.0 | 0.00 | 0.00 | 0.00 | 70 | 968.3 |
| 20260509001138 | 68 | 226 | 0.0 | 4.0 | 0.00 | 0.00 | 0.00 | 70 | 968.4 |
| 20260509000136 | 68 | 233 | 0.0 | 5.0 | 0.00 | 0.00 | 0.00 | 69 | 968.4 |
| 20260508235134 | 68 | 262 | 1.0 | 7.0 | 0.00 | 0.00 | 0.00 | 69 | 968.5 |
| 20260508234128 | 68 | 239 | 1.0 | 7.0 | 0.00 | 0.00 | 0.00 | 69 | 968.4 |
| 20260508233104 | 69 | 194 | 0.0 | 3.0 | 0.00 | 0.00 | 0.00 | 67 | 968.4 |
| 20260508232122 | 69 | 178 | 1.0 | 4.0 | 0.00 | 0.00 | 0.00 | 67 | 968.5 |
| 20260508231119 | 70 | 211 | 0.0 | 4.0 | 0.00 | 0.00 | 0.00 | 66 | 968.6 |
| 20260508225000 | 70 | 237 | 0.0 | 4.0 | 0.00 | 0.00 | 0.00 | 66 | 968.9 |
| 20260508223945 | 70 | 250 | 1.0 | 5.0 | 0.00 | 0.00 | 0.00 | 66 | 969.0 |
| 20260508222930 | 69 | 196 | 1.0 | 5.0 | 0.00 | 0.00 | 0.00 | 66 | 969.1 |
| 20260508221942 | 69 | 244 | 1.0 | 4.0 | 0.00 | 0.00 | 0.00 | 67 | 969.2 |
| 20260508220945 | 69 | 186 | 1.0 | 4.0 | 0.00 | 0.00 | 0.00 | 68 | 969.4 |
| 20260508215929 | 69 | 248 | 1.0 | 4.0 | 0.00 | 0.00 | 0.00 | 67 | 969.5 |
| 20260508214948 | 70 | 211 | 1.0 | 5.0 | 0.00 | 0.00 | 0.00 | 66 | 969.7 |
| 20260508213957 | 70 | 267 | 1.0 | 5.0 | 0.00 | 0.00 | 0.00 | 66 | 969.7 |
| 20260508211906 | 70 | 281 | 1.0 | 5.0 | 0.00 | 0.00 | 0.00 | 66 | 969.8 |
| 20260508210901 | 71 | 163 | 0.0 | 6.0 | 0.00 | 0.00 | 0.00 | 65 | 969.9 |
| 20260508205907 | 70 | 212 | 1.0 | 6.0 | 0.00 | 0.00 | 0.00 | 66 | 969.9 |
| 20260508204924 | 70 | 265 | 1.0 | 6.0 | 0.00 | 0.00 | 0.00 | 66 | 970.0 |
| 20260508203921 | 70 | 223 | 0.0 | 6.0 | 0.00 | 0.00 | 0.00 | 66 | 970.1 |
| 20260508202850 | 70 | 220 | 1.0 | 6.0 | 0.00 | 0.00 | 0.00 | 67 | 970.3 |
| 20260508200807 | 70 | 225 | 0.0 | 4.0 | 0.00 | 0.00 | 0.00 | 66 | 970.5 |
| 20260508195803 | 70 | 121 | 1.0 | 6.0 | 0.00 | 0.00 | 0.00 | 66 | 970.5 |
| 20260508194821 | 69 | 190 | 1.0 | 6.0 | 0.00 | 0.00 | 0.00 | 68 | 970.6 |
| 20260508193753 | 70 | 248 | 1.0 | 5.0 | 0.00 | 0.00 | 0.00 | 67 | 970.7 |
| 20260508192752 | 70 | 114 | 0.0 | 5.0 | 0.00 | 0.00 | 0.00 | 66 | 970.9 |
| 20260508191750 | 69 | 125 | 1.0 | 5.0 | 0.00 | 0.00 | 0.00 | 67 | 970.9 |
| 20260508190739 | 68 | 120 | 1.0 | 4.0 | 0.00 | 0.00 | 0.00 | 69 | 971.0 |
| 20260508185710 | 68 | 191 | 0.0 | 5.0 | 0.00 | 0.00 | 0.00 | 68 | 971.1 |
| 20260508184723 | 67 | 211 | 1.0 | 5.0 | 0.00 | 0.00 | 0.00 | 69 | 971.2 |
| 20260508183729 | 66 | 240 | 1.0 | 5.0 | 0.00 | 0.00 | 0.00 | 72 | 971.2 |
| 20260508182655 | 66 | 228 | 1.0 | 5.0 | 0.00 | 0.00 | 0.00 | 72 | 971.3 |
| 20260508181636 | 65 | 215 | 1.0 | 5.0 | 0.00 | 0.00 | 0.00 | 75 | 971.2 |
| 20260508175559 | 63 | 210 | 0.0 | 0.0 | 0.00 | 0.00 | 0.00 | 80 | 971.4 |
| 20260508174542 | 62 | 207 | 0.0 | 3.0 | 0.00 | 0.00 | 0.00 | 81 | 971.5 |
| 20260508173521 | 61 | 215 | 0.0 | 4.0 | 0.00 | 0.00 | 0.00 | 84 | 971.6 |
| 20260508172501 | 60 | 215 | 0.0 | 4.0 | 0.00 | 0.00 | 0.00 | 86 | 971.7 |
| 20260508171440 | 59 | 204 | 0.0 | 3.0 | 0.00 | 0.00 | 0.00 | 88 | 971.8 |
| 20260508170441 | 59 | 175 | 0.0 | 4.0 | 0.00 | 0.00 | 0.00 | 90 | 971.7 |
| 20260508163157 | 58 | 184 | 0.0 | 1.0 | 0.00 | 0.00 | 0.00 | 97 | 971.5 |
| 20260508161036 | 57 | 184 | 0.0 | 2.0 | 0.00 | 0.00 | 0.00 | 98 | 971.4 |
| 20260508160034 | 57 | 178 | 0.0 | 1.0 | 0.00 | 0.00 | 0.00 | 98 | 971.4 |
| 20260508155001 | 57 | 177 | 0.0 | 1.0 | 0.00 | 0.00 | 0.00 | 98 | 971.4 |
| 20260508154018 | 57 | 177 | 0.0 | 0.0 | 0.00 | 0.00 | 0.00 | 98 | 971.4 |
| 20260508153037 | 57 | 177 | 0.0 | 0.0 | 0.00 | 0.00 | 0.00 | 98 | 971.5 |
| 20260508150922 | 56 | 206 | 0.0 | 0.0 | 0.00 | 0.00 | 0.00 | 98 | 971.6 |
| 20260508145928 | 56 | 206 | 0.0 | 0.0 | 0.00 | 0.00 | 0.00 | 98 | 971.5 |
| 20260508142624 | 56 | 206 | 0.0 | 0.0 | 0.00 | 0.00 | 0.00 | 98 | 971.5 |
| 20260508141556 | 56 | 206 | 0.0 | 0.0 | 0.00 | 0.00 | 0.00 | 98 | 971.7 |
| 20260508140613 | 56 | 205 | 0.0 | 1.0 | 0.00 | 0.00 | 0.00 | 98 | 971.5 |
| 20260508133356 | 56 | 206 | 0.0 | 0.0 | 0.00 | 0.00 | 0.00 | 98 | 971.2 |
| 20260508132407 | 56 | 206 | 0.0 | 0.0 | 0.00 | 0.00 | 0.00 | 98 | 971.1 |
| 20260508131426 | 56 | 205 | 0.0 | 0.0 | 0.00 | 0.00 | 0.00 | 98 | 971.1 |
| 20260508130352 | 56 | 205 | 0.0 | 0.0 | 0.00 | 0.00 | 0.00 | 98 | 971.1 |
| 20260508125340 | 56 | 205 | 0.0 | 0.0 | 0.00 | 0.00 | 0.00 | 98 | 970.9 |
| 20260508123157 | 56 | 206 | 0.0 | 0.0 | 0.00 | 0.00 | 0.00 | 98 | 970.7 |
| 20260508122205 | 56 | 206 | 0.0 | 0.0 | 0.00 | 0.00 | 0.00 | 98 | 970.7 |
| 20260508121221 | 56 | 205 | 0.0 | 0.0 | 0.00 | 0.00 | 0.00 | 98 | 970.7 |
| 20260508120210 | 55 | 205 | 0.0 | 0.0 | 0.00 | 0.00 | 0.00 | 98 | 970.7 |
| 20260508115218 | 55 | 205 | 0.0 | 1.0 | 0.00 | 0.00 | 0.00 | 98 | 970.7 |
| 20260508114152 | 55 | 206 | 0.0 | 0.0 | 0.00 | 0.00 | 0.00 | 98 | 970.6 |
| 20260508113205 | 55 | 205 | 0.0 | 0.0 | 0.00 | 0.00 | 0.00 | 98 | 970.6 |
| 20260508112139 | 55 | 205 | 0.0 | 0.0 | 0.00 | 0.00 | 0.00 | 98 | 970.6 |
| 20260508111111 | 55 | 205 | 0.0 | 0.0 | 0.00 | 0.00 | 0.00 | 98 | 970.6 |
| 20260508110126 | 55 | 205 | 0.0 | 0.0 | 0.00 | 0.00 | 0.00 | 98 | 970.6 |
| 20260508105136 | 55 | 205 | 0.0 | 0.0 | 0.00 | 0.00 | 0.00 | 98 | 970.5 |
| 20260508104200 | 55 | 206 | 0.0 | 0.0 | 0.00 | 0.00 | 0.00 | 98 | 970.6 |
| 20260508103218 | 55 | 205 | 0.0 | 0.0 | 0.00 | 0.00 | 0.00 | 98 | 970.6 |
| 20260508102204 | 55 | 205 | 0.0 | 0.0 | 0.00 | 0.00 | 0.00 | 98 | 970.5 |
| 20260508101135 | 55 | 205 | 0.0 | 0.0 | 0.00 | 0.00 | 0.00 | 98 | 970.6 |
| 20260508100135 | 55 | 205 | 0.0 | 0.0 | 0.00 | 0.00 | 0.00 | 98 | 970.6 |
| 20260508095103 | 55 | 205 | 0.0 | 0.0 | 0.00 | 0.00 | 0.00 | 98 | 970.6 |
| 20260508092857 | 54 | 206 | 0.0 | 0.0 | 0.00 | 0.00 | 0.00 | 98 | 970.6 |
| 20260508091859 | 54 | 206 | 0.0 | 0.0 | 0.00 | 0.00 | 0.00 | 98 | 970.7 |
| 20260508090915 | 54 | 205 | 0.0 | 0.0 | 0.00 | 0.00 | 0.00 | 98 | 970.7 |
| 20260508085845 | 55 | 205 | 0.0 | 0.0 | 0.00 | 0.00 | 0.00 | 98 | 970.7 |
| 20260508084849 | 55 | 206 | 0.0 | 0.0 | 0.00 | 0.00 | 0.00 | 98 | 970.8 |
| 20260508083831 | 55 | 206 | 0.0 | 0.0 | 0.00 | 0.00 | 0.00 | 98 | 970.9 |
| 20260508082806 | 55 | 205 | 0.0 | 0.0 | 0.00 | 0.00 | 0.00 | 98 | 971.1 |
| 20260508081749 | 55 | 206 | 0.0 | 0.0 | 0.00 | 0.00 | 0.00 | 98 | 971.0 |
| 20260508080739 | 55 | 205 | 0.0 | 0.0 | 0.00 | 0.00 | 0.00 | 98 | 971.2 |
| 20260508075720 | 55 | 205 | 0.0 | 0.0 | 0.00 | 0.00 | 0.00 | 98 | 971.3 |
| 20260508074703 | 55 | 205 | 0.0 | 2.0 | 0.00 | 0.00 | 0.00 | 98 | 971.2 |
| 20260508073639 | 55 | 205 | 0.0 | 2.0 | 0.00 | 0.00 | 0.00 | 98 | 971.2 |